This is the latest recevied weather packets stored in our database for station/object EA5AFP-10. If no packets are shown the sender has not sent any weather packets the latest 1 day(s).
| Time | Temp. | Humidity | Pressure | Rain* | Wind** | Luminosity | Snow |
|---|---|---|---|---|---|---|---|
| 1778008780 | 20.56° C | 7% | - | 0 mm | 0 m/s | - | - |
| 1778008520 | 20.56° C | 7% | - | 0 mm | 0.45 m/s, 292° | - | - |
| 1778008237 | 20.56° C | 6% | - | 0 mm | 0 m/s | - | - |
| 1778007980 | 21.11° C | 7% | - | 0 mm | 0 m/s | - | - |
| 1778007715 | 20.56° C | 7% | - | 0 mm | 0 m/s | - | - |
| 1778007420 | 21.11° C | 7% | - | 0 mm | 1.34 m/s, 315° | - | - |
| 1778007320 | 21.11° C | 7% | - | 0 mm | 1.34 m/s, 315° | - | - |
| 1778007251 | 21.11° C | 6% | - | 0 mm | 0 m/s | - | - |
| 1778007006 | 21.67° C | 6% | - | 0 mm | 0 m/s | - | - |
| 1778006780 | 21.67° C | 6% | - | 0 mm | 0.45 m/s, 270° | - | - |
| 1778006762 | 21.67° C | 6% | - | 0 mm | 0.89 m/s, 270° | - | - |
| 1778006484 | 22.22° C | 6% | - | 0 mm | 0 m/s | - | - |
| 1778006196 | 21.67° C | 6% | - | 0 mm | 0.89 m/s, 112° | - | - |
| 1778005927 | 21.67° C | 6% | - | 0 mm | 0 m/s | - | - |
| 1778005640 | 22.22° C | 6% | - | 0 mm | 0.89 m/s, 112° | - | - |
| 1778005636 | 22.22° C | 6% | - | 0 mm | 0.89 m/s, 112° | - | - |
| 1778005427 | 22.22° C | 6% | - | 0 mm | 0.89 m/s, 112° | - | - |
| 1778005173 | 22.22° C | 6% | - | 0 mm | 0.89 m/s, 90° | - | - |
| 1778004921 | 22.78° C | 6% | - | 0 mm | 0 m/s | - | - |
| 1778004636 | 22.78° C | 5% | - | 0 mm | 1.34 m/s, 90° | - | - |
| 1778004379 | 23.33° C | 5% | - | 0 mm | 1.34 m/s, 90° | - | - |
| 1778004114 | 23.33° C | 5% | - | 0 mm | 0 m/s | - | - |
| 1778003819 | 22.78° C | 6% | - | 0 mm | 1.34 m/s, 112° | - | - |
| 1778003700 | 22.78° C | 6% | - | 0 mm | 0.89 m/s, 90° | - | - |
| 1778003405 | 22.78° C | 6% | - | 0 mm | 0.89 m/s, 45° | - | - |
* Rain latest hour (hover to see other rain measurements)
** Current wind speed in m/s (hover to see current wind gust speed)